[[{"header":{"parameterUnit":"m.s-1","parameterCategory":2,"la1":30.2992,"la2":30.254,"lo1":-89.0895,"lo2":-89.0443,"dy":0.0025,"dx":0.0025,"nx":19,"ny":19,"refTime":"2026-03-20T21:00:00:Z","depth":"0","parameterNumber":2,"parameterNumberName":"U-component_of_CURRENTS"},"data":[0,0,0,0.1512,0.1511,0.1408,0.1407,0.1504,0.1506,0,0,0,0,0,0,0,0,0,0,0,0.1547,0.1547,0.1512,0.1511,0.1408,0.1407,0.1503,0.1506,0,0,0,0,0,0,0,0,0,0,0,0.1547,0.1547,0.1547,0.1511,0.1408,0.1407,0.1503,0.1515,0,0,0,0,0,0,0,0,0,0,0.1582,0.1558,0.1547,0.1547,0.151,0.1409,0.1407,0.1512,0.1514,0.1628,0,0.1632,0,0.1597,0.1521,0.1522,0,0,0,0.1473,0.1556,0.1576,0.1547,0.151,0.1409,0.1444,0.1511,0.1514,0.1631,0.1633,0.1634,0.1598,0.1522,0.1523,0.1725,0.1726,0,0,0.1479,0.1483,0.1574,0.1578,0.1518,0.1447,0.1441,0.151,0.1506,0.1633,0.1636,0.16,0.1524,0.1526,0.1725,0.1726,0,0,0,0.1521,0.1487,0.1497,0.1576,0.1553,0.1445,0.1438,0.15,0.1518,0.1636,0.1601,0.1525,0.1528,0.1724,0.1725,0.1695,0,0,0,0.1522,0.1515,0.1501,0.1495,0.1551,0.1486,0.1428,0.1512,0.1518,0.1601,0.1525,0.153,0.1724,0.1725,0.1694,0.1673,0,0,0,0.1546,0.1515,0.1523,0.1497,0.1474,0.1484,0.1498,0.151,0.1502,0.1522,0.1531,0.1723,0.1725,0.1694,0.1673,0.1717,0,0,0,0.1525,0.1509,0.1523,0.1498,0.1476,0.1477,0.1496,0.1489,0.1504,0.1526,0.1724,0.1725,0.1694,0.1673,0.1716,0.1745,0.175,0,0,0.1489,0.1504,0.1492,0.1503,0.1482,0.1486,0.1491,0.1521,0.1568,0.1711,0.1713,0.1694,0.1673,0.1716,0.1816,0.1819,0,0,0,0.147,0.1461,0.1459,0.145,0.1474,0.1489,0.1518,0.1553,0.1622,0.159,0.1728,0.1717,0.1744,0.1762,0.1765,0.1791,0.1731,0.1731,0.1731,0.1371,0.1401,0.1381,0.1426,0.1451,0.1506,0.1531,0.1603,0.1658,0.1688,0.1717,0.1761,0.178,0.1782,0.1808,0.175,0.175,0.175,0.175,0.1292,0.1275,0.1339,0.1338,0.1417,0.1456,0.158,0.1615,0.1716,0.1725,0.1755,0.1759,0.1783,0.1811,0.1749,0.1749,0.1749,0.1749,0.1749,0.1191,0.1198,0.1218,0.1255,0.1315,0.1425,0.1506,0.1601,0.169,0.1719,0.1788,0.1789,0.1793,0.1754,0.1754,0.1754,0.1754,0.1755,0.1755,0.108,0.1109,0.1116,0.1172,0.1215,0.1306,0.1466,0.155,0.1698,0.1766,0.1768,0.1823,0.1763,0.174,0.1756,0.1756,0.1756,0.1756,0.1755,0.0971,0.0996,0.1018,0.1052,0.1149,0.1209,0.1367,0.157,0.1678,0.1754,0.1867,0.1811,0.1831,0.1829,0.181,0.1844,0.1844,0.1844,0.1844,0.0907,0.0914,0.0971,0.1018,0.1079,0.1181,0.1284,0.1463,0.1734,0.1857,0.1918,0.1914,0.1909,0.1934,0.193,0.1913,0.1972,0.1972,0.1972,0.0868,0.0913,0.0937,0.0995,0.1063,0.1144,0.1213,0.1336,0.1742,0.1978,0.1948,0.1943,0.1937,0.1927,0.1963,0.1956,0.1927,0,0]},{"header":{"parameterUnit":"m.s-1","parameterCategory":2,"la1":30.2992,"la2":30.254,"lo1":-89.0895,"lo2":-89.0443,"dy":0.0025,"dx":0.0025,"nx":19,"ny":19,"refTime":"2026-03-20T21:00:00:Z","depth":"0","parameterNumber":3,"parameterNumberName":"V-component_of_CURRENTS"},"data":[0,0,0,-0.0129,-0.0127,-0.0045,-0.0045,-0.0044,-0.0044,0,0,0,0,0,0,0,0,0,0,0,-0.0164,-0.0163,-0.0129,-0.0127,-0.0045,-0.0045,-0.0044,-0.0044,0,0,0,0,0,0,0,0,0,0,0,-0.0164,-0.0163,-0.0163,-0.0126,-0.0045,-0.0045,-0.0044,-0.0081,0,0,0,0,0,0,0,0,0,0,-0.0148,-0.0168,-0.0163,-0.0163,-0.0126,-0.0045,-0.0045,-0.0082,-0.0079,-0.0109,0,-0.0093,0,-0.0066,-0.0046,-0.0046,0,0,0,-0.0131,-0.017,-0.0142,-0.0163,-0.0125,-0.0046,-0.0083,-0.0079,-0.0076,-0.0106,-0.0093,-0.0092,-0.0066,-0.0046,-0.0047,-0.0062,-0.0061,0,0,-0.0136,-0.0158,-0.0144,-0.014,-0.0102,-0.0086,-0.0081,-0.0076,-0.0079,-0.0093,-0.0091,-0.0066,-0.0047,-0.0047,-0.0062,-0.0062,0,0,0,-0.0146,-0.0161,-0.0131,-0.0141,-0.0116,-0.0084,-0.0078,-0.0079,-0.0067,-0.0091,-0.0066,-0.0047,-0.0047,-0.0062,-0.0062,-0.0016,0,0,0,-0.0149,-0.0166,-0.0133,-0.0147,-0.0115,-0.0083,-0.0081,-0.0067,-0.0065,-0.0066,-0.0047,-0.0047,-0.0062,-0.0062,-0.0018,-0.001,0,0,0,-0.0168,-0.0168,-0.0156,-0.0148,-0.0108,-0.0082,-0.0069,-0.0066,-0.0051,-0.0046,-0.0048,-0.0062,-0.0062,-0.0019,-0.0012,0.0012,0,0,0,-0.0197,-0.0162,-0.0157,-0.0122,-0.0109,-0.006,-0.0068,-0.0039,-0.0032,-0.0047,-0.0062,-0.0062,-0.0019,-0.0013,0.0011,0.0071,0.0082,0,0,-0.0164,-0.0159,-0.0139,-0.0131,-0.0085,-0.0071,-0.0028,-0.0023,-0.0045,-0.0072,-0.0071,-0.0017,-0.0012,0.0012,0.0076,0.0088,0,0,0,-0.0135,-0.0123,-0.0109,-0.0085,-0.0055,-0.003,-0.0014,-0.0009,-0.0013,-0.0039,-0.0028,-0.0027,-0.0013,0.002,0.0029,0.0026,-0.0061,-0.0061,-0.0061,-0.0122,-0.0106,-0.0075,-0.0054,-0.0034,0.0001,0.0023,0.0025,0.0005,0.0008,0.0003,0.0039,0.0075,0.0082,0.0078,0.0001,0.0001,0.0001,0.0001,-0.0073,-0.0049,-0.0053,-0.0015,-0.0004,0.0021,0.0046,0.0052,0.0065,0.0034,0.0047,0.0057,0.0094,0.0087,0.0004,0.0003,0.0003,0.0003,0.0002,-0.0038,-0.0027,-0.0014,0.0013,0.003,0.0044,0.0095,0.0099,0.0087,0.0105,0.0131,0.0131,0.013,0.011,0.0111,0.0111,0.0111,0.0111,0.0111,-0.0008,0.0004,0.0029,0.004,0.0061,0.0088,0.0122,0.015,0.0174,0.0173,0.0174,0.0144,0.0072,0.0075,0.0113,0.0113,0.0113,0.0112,0.0112,0.0041,0.0031,0.0084,0.0107,0.0148,0.0216,0.0223,0.0288,0.0289,0.031,0.0262,0.0216,0.0205,0.0198,0.0204,0.0273,0.0273,0.0273,0.0273,0.006,0.0058,0.0132,0.0191,0.0248,0.0288,0.0419,0.046,0.0418,0.039,0.0325,0.0318,0.0311,0.0304,0.0295,0.0301,0.0393,0.0393,0.0393,0.0074,0.0101,0.0166,0.0223,0.03,0.0384,0.0535,0.0661,0.0548,0.0394,0.0309,0.0304,0.0286,0.0276,0.0256,0.0244,0.0249,0,0]}],[{"header":{"parameterUnit":"m.s-1","parameterCategory":2,"la1":30.2992,"la2":30.254,"lo1":-89.0895,"lo2":-89.0443,"dy":0.0025,"dx":0.0025,"nx":19,"ny":19,"refTime":"2026-03-20T21:00:00:Z","depth":"2","parameterNumber":2,"parameterNumberName":"U-component_of_CURRENTS"},"data":[0,0,0,-0.0233,-0.0233,0.0036,0.0039,0.0164,0.0162,0,0,0,0,0,0,0,0,0,0,0,-0.016,-0.0158,-0.0233,-0.0233,0.0035,0.0039,0.0164,0.0162,0,0,0,0,0,0,0,0,0,0,0,-0.0161,-0.0159,-0.0157,-0.0234,0.0034,0.0039,0.0165,0.0062,0,0,0,0,0,0,0,0,0,0,-0.0153,-0.014,-0.0159,-0.0156,-0.0234,0.0034,0.004,0.0061,0.0068,-0.008,0,-0.0031,0,-0.0101,0.0148,0.0147,0,0,0,-0.0043,-0.0144,-0.0124,-0.0156,-0.0234,0.0032,-0.0032,0.0069,0.0075,-0.0074,-0.0031,-0.0029,-0.0099,0.0147,0.0146,0.008,0.0081,0,0,-0.0058,-0.0069,-0.0127,-0.0119,-0.0167,-0.0042,-0.0027,0.0077,0.0103,-0.0031,-0.0029,-0.0097,0.0145,0.0144,0.008,0.0081,0,0,0,-0.0229,-0.0079,-0.0047,-0.012,-0.0149,-0.004,-0.002,0.0107,0.0103,-0.0028,-0.0096,0.0144,0.0141,0.0079,0.008,0.0274,0,0,0,-0.0228,-0.0196,-0.0054,-0.0052,-0.015,-0.001,0.0006,0.0106,0.0107,-0.0096,0.0144,0.0139,0.0078,0.0079,0.0266,0.0326,0,0,0,-0.0172,-0.0194,-0.0167,-0.0054,-0.0049,-0.0011,0.0007,0.0111,0.005,0.0147,0.0139,0.0077,0.0079,0.026,0.0315,0.0358,0,0,0,-0.0179,-0.0065,-0.0164,0.0002,-0.0053,0.0017,0.0008,0.0088,0.0178,0.0143,0.0078,0.008,0.0258,0.0309,0.0352,0.024,0.0259,0,0,-0.0036,-0.0047,0.0071,-0.0018,0.0068,-0.0006,0.0121,0.0217,0.0156,0.0056,0.006,0.0269,0.0315,0.0357,0.0359,0.0374,0,0,0,0.012,0.0161,0.0208,0.0228,0.0215,0.0207,0.0174,0.0197,0.028,0.0171,0.0256,0.0278,0.0299,0.0218,0.0231,0.009,0.0089,0.0089,0.0089,0.0266,0.0285,0.039,0.0358,0.039,0.0322,0.0416,0.0396,0.0309,0.0368,0.0429,0.0579,0.0498,0.0505,0.043,0.0431,0.0431,0.0432,0.0432,0.0338,0.0402,0.042,0.0516,0.0484,0.0529,0.0533,0.0543,0.0637,0.0556,0.0568,0.0417,0.0531,0.0448,0.0445,0.0443,0.0441,0.044,0.0439,0.039,0.0399,0.0462,0.0504,0.0632,0.0646,0.0753,0.0771,0.0772,0.0863,0.071,0.0704,0.0671,0.0871,0.0872,0.0872,0.0873,0.0873,0.0874,0.0362,0.0403,0.0441,0.0514,0.0621,0.0714,0.0833,0.0864,0.0879,0.0884,0.0882,0.0725,0.0711,0.0693,0.0881,0.088,0.0879,0.0878,0.0878,0.0386,0.0396,0.0419,0.0493,0.0622,0.0702,0.0798,0.0884,0.0939,0.0945,0.0864,0.0861,0.0768,0.0753,0.0734,0.0922,0.0922,0.0922,0.0922,0.0389,0.0389,0.0426,0.0511,0.0592,0.0694,0.0763,0.0768,0.0804,0.0668,0.0678,0.0563,0.0567,0.0453,0.0445,0.0415,0.0521,0.052,0.0519,0.0342,0.0361,0.043,0.0514,0.0618,0.067,0.0705,0.0737,0.0544,0.0499,0.0571,0.0902,0.0756,0.0753,0.0589,0.0573,0.0528,0,0]},{"header":{"parameterUnit":"m.s-1","parameterCategory":2,"la1":30.2992,"la2":30.254,"lo1":-89.0895,"lo2":-89.0443,"dy":0.0025,"dx":0.0025,"nx":19,"ny":19,"refTime":"2026-03-20T21:00:00:Z","depth":"2","parameterNumber":3,"parameterNumberName":"V-component_of_CURRENTS"},"data":[0,0,0,-0.0132,-0.0131,-0.0135,-0.0135,-0.0248,-0.0249,0,0,0,0,0,0,0,0,0,0,0,-0.0183,-0.0184,-0.0133,-0.0131,-0.0135,-0.0135,-0.0247,-0.0249,0,0,0,0,0,0,0,0,0,0,0,-0.0183,-0.0183,-0.0184,-0.0131,-0.0135,-0.0135,-0.0247,-0.0227,0,0,0,0,0,0,0,0,0,0,-0.0214,-0.0236,-0.0183,-0.0184,-0.0131,-0.0134,-0.0135,-0.0225,-0.0228,-0.0265,0,-0.0278,0,-0.0228,-0.0255,-0.0255,0,0,0,-0.0169,-0.0234,-0.0214,-0.0184,-0.013,-0.0134,-0.0144,-0.0226,-0.023,-0.0269,-0.0278,-0.028,-0.023,-0.0256,-0.0256,-0.0314,-0.0314,0,0,-0.0169,-0.0203,-0.0212,-0.0217,-0.0148,-0.0143,-0.0143,-0.0228,-0.0254,-0.0278,-0.0281,-0.0232,-0.0256,-0.0257,-0.0314,-0.0314,0,0,0,-0.0143,-0.0203,-0.0181,-0.0215,-0.0186,-0.0143,-0.0143,-0.0251,-0.0238,-0.0282,-0.0233,-0.0257,-0.0258,-0.0314,-0.0314,-0.0253,0,0,0,-0.0145,-0.0184,-0.0182,-0.0204,-0.0183,-0.0201,-0.0165,-0.0235,-0.024,-0.0233,-0.0257,-0.0259,-0.0314,-0.0314,-0.0255,-0.0239,0,0,0,-0.018,-0.0186,-0.0188,-0.0206,-0.018,-0.0197,-0.0192,-0.0235,-0.0209,-0.0255,-0.0259,-0.0314,-0.0314,-0.0256,-0.0242,-0.0227,0,0,0,-0.0212,-0.021,-0.0191,-0.0186,-0.018,-0.0156,-0.019,-0.0197,-0.0234,-0.0257,-0.0314,-0.0314,-0.0257,-0.0244,-0.0228,-0.0165,-0.0153,0,0,-0.0212,-0.0212,-0.0205,-0.0184,-0.0146,-0.0157,-0.0142,-0.0203,-0.0245,-0.0301,-0.0302,-0.0254,-0.0242,-0.0227,-0.0152,-0.014,0,0,0,-0.0204,-0.019,-0.0182,-0.0162,-0.015,-0.0144,-0.017,-0.0182,-0.0228,-0.0255,-0.0267,-0.0262,-0.0254,-0.0219,-0.021,-0.0313,-0.0313,-0.0313,-0.0313,-0.0197,-0.0181,-0.0163,-0.0142,-0.0145,-0.0135,-0.0141,-0.0168,-0.0207,-0.0212,-0.022,-0.0181,-0.0143,-0.0135,-0.0225,-0.0225,-0.0225,-0.0225,-0.0224,-0.0142,-0.0126,-0.0131,-0.01,-0.0114,-0.0111,-0.0126,-0.0137,-0.0143,-0.018,-0.0175,-0.0167,-0.0121,-0.022,-0.0221,-0.0221,-0.0222,-0.0222,-0.0222,-0.0093,-0.0097,-0.0085,-0.008,-0.0072,-0.0084,-0.0058,-0.0074,-0.011,-0.0092,-0.0078,-0.0078,-0.0146,-0.0093,-0.0093,-0.0092,-0.0092,-0.0092,-0.0092,-0.0074,-0.0069,-0.0051,-0.005,-0.0041,-0.0029,-0.002,-0.0012,-0.0009,-0.0019,-0.0018,-0.0137,-0.0141,-0.014,-0.009,-0.009,-0.0091,-0.0091,-0.0091,-0.0034,-0.0065,-0.002,-0.0007,0.0028,0.0088,0.0079,0.0125,0.011,0.0123,0.0022,0.0019,-0.0,-0.0008,-0.0004,0.0077,0.0077,0.0077,0.0077,-0.0041,-0.0043,0.0008,0.0061,0.0106,0.0151,0.0256,0.0234,0.0168,0.0058,0.0058,0.0044,0.0039,0.0019,0.001,0.0013,0.0099,0.0098,0.0098,-0.0045,-0.0026,0.0032,0.009,0.0156,0.024,0.0364,0.0409,0.0193,0.0091,-0.002,0.0095,0.0076,0.0068,0.0035,0.0022,0.0025,0,0]}],[{"header":{"parameterUnit":"m.s-1","parameterCategory":2,"la1":30.2992,"la2":30.254,"lo1":-89.0895,"lo2":-89.0443,"dy":0.0025,"dx":0.0025,"nx":19,"ny":19,"refTime":"2026-03-20T21:00:00:Z","depth":"4","parameterNumber":2,"parameterNumberName":"U-component_of_CURRENTS"},"data":[0,0,0,-0.0637,-0.0638,-0.0657,-0.0657,-0.0789,-0.0791,0,0,0,0,0,0,0,0,0,0,0,-0.0617,-0.0617,-0.0637,-0.0638,-0.0657,-0.0657,-0.0789,-0.0791,0,0,0,0,0,0,0,0,0,0,0,-0.0617,-0.0617,-0.0617,-0.0638,-0.0657,-0.0657,-0.0789,-0.0743,0,0,0,0,0,0,0,0,0,0,-0.0708,-0.0679,-0.0617,-0.0617,-0.0638,-0.0657,-0.0657,-0.0739,-0.0746,-0.0817,0,-0.0822,0,-0.0828,-0.0804,-0.0805,0,0,0,-0.0619,-0.0673,-0.0689,-0.0617,-0.0639,-0.0658,-0.0643,-0.0742,-0.0749,-0.0826,-0.0824,-0.0828,-0.0831,-0.0805,-0.0806,-0.0926,-0.0926,0,0,-0.0618,-0.0615,-0.0683,-0.0693,-0.0651,-0.0643,-0.0644,-0.0745,-0.0754,-0.0824,-0.0831,-0.0833,-0.0807,-0.0808,-0.0926,-0.0926,0,0,0,-0.0627,-0.0614,-0.0623,-0.0688,-0.0694,-0.0644,-0.0645,-0.0748,-0.0754,-0.0833,-0.0834,-0.0808,-0.081,-0.0926,-0.0926,-0.0917,0,0,0,-0.0626,-0.0621,-0.0623,-0.062,-0.0691,-0.0708,-0.0646,-0.0746,-0.0758,-0.0834,-0.0808,-0.0812,-0.0926,-0.0926,-0.0917,-0.0904,0,0,0,-0.0615,-0.062,-0.0625,-0.062,-0.064,-0.0705,-0.0715,-0.0747,-0.0761,-0.0805,-0.0813,-0.0926,-0.0926,-0.0918,-0.0905,-0.0903,0,0,0,-0.0606,-0.0598,-0.0625,-0.0624,-0.064,-0.0634,-0.0713,-0.0723,-0.075,-0.0809,-0.0926,-0.0926,-0.0918,-0.0906,-0.0904,-0.0709,0,0,0,-0.0585,-0.0595,-0.0594,-0.062,-0.0621,-0.0629,-0.0629,-0.0706,-0.0775,-0.0899,-0.09,-0.0917,-0.0905,-0.0903,-0.069,0,0,0,0,-0.058,-0.0576,-0.0583,-0.0595,-0.0606,-0.0615,-0.0657,-0.0701,-0.0807,-0.0797,-0.0912,-0.0904,-0.0904,-0.0792,-0.0924,-0.0924,-0.0924,-0.0924,-0.0924,-0.0521,-0.0543,-0.0538,-0.0562,-0.0568,-0.0603,-0.0615,-0.0687,-0.0777,-0.0823,-0.0894,-0.088,-0.076,-0.0895,-0.0895,-0.0895,-0.0895,-0.0895,-0.0895,-0.0475,-0.048,-0.0505,-0.0514,-0.0547,-0.056,-0.0635,-0.0692,-0.0797,-0.0867,-0.0868,-0.0785,-0.0894,-0.0894,-0.0894,-0.0895,-0.0895,-0.0895,-0.0895,-0.0454,-0.0457,-0.0471,-0.0484,-0.0519,-0.0575,-0.0595,-0.0714,-0.0795,-0.0808,-0.0736,-0.0871,-0.0876,-0.0857,-0.0856,-0.0856,-0.0856,-0.0856,-0.0856,-0.0429,-0.0438,-0.0435,-0.0466,-0.0477,-0.0539,-0.0624,-0.0608,-0.0712,-0.0694,-0.0847,-0.0867,-0.0868,-0.0873,-0.0855,-0.0855,-0.0855,-0.0856,-0.0856,-0.0411,-0.0423,-0.0403,-0.0402,-0.0399,-0.0444,-0.0521,-0.0473,-0.0462,-0.0433,-0.0611,-0.0624,-0.0609,-0.0617,-0.0613,-0.0517,-0.0514,-0.0512,0,-0.04,-0.0402,-0.0353,-0.0306,-0.028,-0.0358,-0.0264,-0.026,-0.0353,-0.0393,-0.0488,-0.0697,-0.0703,-0.0693,-0.0695,-0.0692,0,0,0,-0.038,-0.0365,-0.0316,-0.0258,-0.0211,-0.0198,-0.0246,-0.0213,-0.0386,-0.0214,-0.0447,-0.0464,-0.0542,-0.0852,-0.0859,-0.086,-0.0869,0,0]},{"header":{"parameterUnit":"m.s-1","parameterCategory":2,"la1":30.2992,"la2":30.254,"lo1":-89.0895,"lo2":-89.0443,"dy":0.0025,"dx":0.0025,"nx":19,"ny":19,"refTime":"2026-03-20T21:00:00:Z","depth":"4","parameterNumber":3,"parameterNumberName":"V-component_of_CURRENTS"},"data":[0,0,0,-0.0111,-0.0112,-0.0211,-0.0212,-0.0313,-0.0314,0,0,0,0,0,0,0,0,0,0,0,-0.0087,-0.0087,-0.0111,-0.0112,-0.0211,-0.0212,-0.0313,-0.0314,0,0,0,0,0,0,0,0,0,0,0,-0.0087,-0.0087,-0.0088,-0.0113,-0.0211,-0.0212,-0.0313,-0.0249,0,0,0,0,0,0,0,0,0,0,-0.0158,-0.0128,-0.0087,-0.0088,-0.0113,-0.0211,-0.0212,-0.0246,-0.0253,-0.0255,0,-0.0268,0,-0.028,-0.0318,-0.0318,0,0,0,-0.0131,-0.0123,-0.0148,-0.0088,-0.0114,-0.0211,-0.0172,-0.025,-0.0258,-0.0263,-0.027,-0.0273,-0.0281,-0.0318,-0.0319,-0.0432,-0.0433,0,0,-0.0126,-0.0107,-0.0143,-0.0153,-0.0136,-0.0169,-0.0175,-0.0255,-0.0261,-0.027,-0.0276,-0.0283,-0.0319,-0.0319,-0.0432,-0.0433,0,0,0,-0.0097,-0.0103,-0.0128,-0.0149,-0.0161,-0.0171,-0.0178,-0.0258,-0.0266,-0.0277,-0.0284,-0.0319,-0.032,-0.0431,-0.0432,-0.0441,0,0,0,-0.0095,-0.0085,-0.0125,-0.0116,-0.016,-0.0212,-0.0179,-0.0261,-0.027,-0.0284,-0.0319,-0.0321,-0.043,-0.0432,-0.0439,-0.0438,0,0,0,-0.0083,-0.0084,-0.0094,-0.0115,-0.0148,-0.0211,-0.0226,-0.0264,-0.0273,-0.0318,-0.0321,-0.043,-0.0431,-0.0438,-0.0435,-0.0411,0,0,0,-0.0062,-0.0091,-0.0094,-0.0136,-0.0147,-0.0239,-0.0225,-0.0306,-0.0353,-0.032,-0.043,-0.0432,-0.0437,-0.0434,-0.041,-0.0332,0,0,0,-0.0089,-0.0093,-0.0122,-0.0127,-0.0209,-0.0227,-0.0315,-0.0369,-0.0376,-0.0403,-0.0406,-0.044,-0.0435,-0.041,-0.0439,0,0,0,0,-0.0125,-0.0143,-0.0173,-0.0215,-0.0276,-0.033,-0.0383,-0.0402,-0.0448,-0.0406,-0.0474,-0.0471,-0.0454,-0.041,-0.0441,-0.044,-0.044,-0.044,-0.044,-0.0139,-0.0173,-0.0229,-0.028,-0.0336,-0.0416,-0.0461,-0.0493,-0.0495,-0.0521,-0.0504,-0.0528,-0.0486,-0.0536,-0.0536,-0.0536,-0.0537,-0.0537,-0.0537,-0.0178,-0.0209,-0.0255,-0.0317,-0.0376,-0.0447,-0.0519,-0.0534,-0.0551,-0.0552,-0.0535,-0.0456,-0.0538,-0.0538,-0.0538,-0.0538,-0.0537,-0.0537,-0.0537,-0.0183,-0.0202,-0.0237,-0.0317,-0.0393,-0.047,-0.051,-0.0553,-0.0557,-0.0558,-0.0478,-0.0527,-0.0494,-0.0532,-0.0532,-0.0532,-0.0532,-0.0532,-0.0532,-0.0168,-0.0205,-0.0254,-0.033,-0.0383,-0.0443,-0.0504,-0.0503,-0.0518,-0.0483,-0.0544,-0.0525,-0.0526,-0.0494,-0.0531,-0.0531,-0.0531,-0.0531,-0.0531,-0.0186,-0.0208,-0.0265,-0.0314,-0.0407,-0.0435,-0.0475,-0.0439,-0.0416,-0.0389,-0.0435,-0.0441,-0.0419,-0.0421,-0.0385,-0.039,-0.0389,-0.0388,0,-0.0206,-0.0217,-0.0293,-0.0351,-0.0397,-0.0438,-0.038,-0.0369,-0.0375,-0.037,-0.0436,-0.0491,-0.0493,-0.0474,-0.0474,-0.0435,0,0,0,-0.0244,-0.0247,-0.0301,-0.0347,-0.0402,-0.0372,-0.0365,-0.0342,-0.0372,-0.0323,-0.0365,-0.0371,-0.0467,-0.0527,-0.0505,-0.0505,-0.0454,0,0]}]]